sat.trackr.live / text

‹ back to catalog

STARLINK-33978

NORAD 63832 · 2025-092AE

PAYLOAD ACTIVE UNKNOWN

§ Identity

Operator
Country
US
Launch date
2025-05-04
Launch site
AFETR
Launch vehicle
Mass (kg)
RCS (m²)

Purposes: comms

External: N2YO · Heavens-Above · Gunter

§ Orbital elements

Epoch: 2026-09-20T23:32:12.293376Z

Period
94.27 min
Inclination
43.0003°
Eccentricity
0.0001219
Mean motion
15.27579917 rev/d
Perigee alt
482.2 km
Apogee alt
483.9 km
Semi-major
6,861.2 km
B*
1.5541e-4
RAAN
149.4890°
Arg perigee
273.9272°
Mean anomaly
86.1440°
Rev number
7,853

§ Raw data

STARLINK-339781 63832U 25092AE  26263.98069784  .00004017  00000+0  15541-3 0  99902 63832  43.0003 149.4890 0001219 273.9272  86.1440 15.27579917 78533

JSON: /api/v1/satellites/63832 · /tle

For live sub-satellite position, see the globe view (requires WebGL).

§ Visibility from observer

Set your observer location to see the next 7 days of passes ≥ 10°. The values pass through the URL so the page stays shareable.

No JS? Fill the form by hand. The geolocation button needs JavaScript.